#timestamp,LO_Frequency,Hit,StdDev 
1635739215.4,286047001.9,N
1635739235.2,286047001.9,N
1635739255.0,286047001.8,N
1635739255.9,286047001.8,N
1635739275.8,286047001.3,N
1635739295.6,286047004.2,Y
1635739315.5,286047002.4,P
1635739335.3,286047001.0,N
1635739355.1,286047000.4,N
1635739375.9,286047000.0,N
1635739395.7,286047000.0,N
1635739415.5,286047000.1,N
1635739435.4,286047000.0,N
1635739455.2,286047001.0,N
1635739475.1,286047000.7,N
1635739476.0,286047000.7,N
1635739495.8,286047000.4,N
1635739515.6,286047000.3,N
1635739535.5,286046998.5,N
1635739555.3,286046998.9,N
1635739575.1,286046999.3,N
1635739595.9,286046999.4,N
1635739615.7,286046999.6,N
1635739635.6,286046997.8,N
1635739655.4,286046999.2,N
1635739675.2,286046998.4,N
1635739695.1,286046999.1,N
1635739696.0,286046999.1,N
1635739715.8,286046997.0,N
1635739735.6,286046997.1,N
1635739755.5,286046997.1,N
1635739775.3,286046997.0,N
1635739795.2,286046998.6,N
1635739815.9,286046998.1,N
1635739835.7,286046998.6,N
1635739855.6,286047000.4,N
1635739875.4,286047000.6,N
1635739895.2,286047000.7,N
1635739915.1,286047000.7,N
1635739916.0,286047000.7,N
1635739935.8,286047000.7,N
1635739955.7,286047000.4,N
1635739975.5,286047000.6,N
1635739995.3,286047000.7,N
1635740015.2,286047002.7,N
1635740035.0,286046999.7,N
1635740035.9,286046999.7,N
1635740055.7,286047000.0,N
1635740075.6,286047001.2,N
1635740095.4,286046998.4,N
1635740115.3,286046998.6,N
1635740135.1,286046998.5,N
1635740136.0,286046998.5,N
1635740155.8,286047000.7,N
1635740175.7,286046998.4,N
1635740195.5,286046998.3,N
1635740215.4,286047000.9,N
1635740235.2,286047000.6,N
1635740255.0,286047000.9,N
1635740255.9,286047000.9,N
1635740275.8,286047000.6,N
1635740295.6,286047000.1,N
1635740315.4,286047000.9,N
1635740335.3,286047000.2,N
1635740355.1,286047002.8,N
1635740375.9,286047002.4,N
1635740395.7,286047000.4,N
1635740415.5,286047000.3,N
1635740435.4,286047000.3,N
1635740455.2,286047000.3,N
1635740475.0,286047000.8,N
1635740475.9,286047000.8,N
1635740495.8,286047000.5,N
1635740515.6,286046998.5,N
1635740535.5,286046998.4,N
1635740555.3,286046998.5,N
1635740575.1,286047000.8,N
1635740595.9,286046999.7,N
1635740615.7,286047000.3,N
1635740635.6,286046999.9,N
1635740655.4,286047000.1,N
1635740675.2,286047000.3,N
1635740695.1,286047000.6,N
1635740696.0,286047000.6,N
1635740715.8,286047000.2,N
1635740735.7,286047000.5,N
1635740755.5,286047000.3,N
1635740775.3,286047000.5,N
1635740795.2,286047002.8,Y
1635740815.0,286047000.6,P
1635740815.9,286047000.6,P
1635740835.8,286047000.6,P
1635740855.6,286046998.1,Y
1635740875.4,286046998.6,P
1635740895.3,286046998.5,N
1635740915.1,286047000.0,N
1635740935.8,286046999.7,N
1635740955.7,286047002.5,Y
1635740975.5,286047001.6,P
1635740995.4,286046999.9,N
1635741015.2,286047001.0,N
1635741035.0,286047000.6,N
1635741035.9,286047000.6,N
1635741055.8,286047002.7,Y
1635741075.6,286047002.0,P
1635741095.5,286047002.6,P
1635741115.3,286047000.4,N
1635741135.1,286047000.9,N
1635741155.9,286047000.2,N
1635741175.7,286046999.7,N
1635741195.5,286047002.1,N
1635741215.4,286046999.8,N
1635741235.2,286046999.7,N
1635741255.1,286046999.7,N
1635741256.0,286046999.7,N
1635741275.8,286047002.4,N
1635741295.6,286047000.3,N
1635741315.5,286047001.7,N
1635741335.3,286047002.6,N
1635741355.2,286047002.8,N
1635741375.9,286047000.2,N
1635741395.7,286047002.6,N
1635741415.6,286046999.7,N
1635741435.4,286047000.0,N
1635741455.2,286046999.9,N
1635741475.1,286047000.1,N
1635741476.0,286047000.1,N
1635741495.8,286047000.3,N
1635741515.7,286047000.5,N
1635741535.5,286046998.7,N
1635741555.3,286046998.5,N
1635741575.2,286046998.6,N
1635741595.0,286047000.9,N
1635741595.9,286047000.9,N
1635741615.7,286047001.1,N
1635741635.6,286047001.0,N
1635741655.4,286047000.4,N
1635741675.3,286047000.3,N
1635741695.1,286046999.7,N
1635741696.0,286046999.7,N
1635741715.8,286046999.7,N
1635741735.7,286047000.9,N
1635741755.5,286047000.4,N
1635741775.4,286047000.6,N
1635741795.2,286046999.7,N
1635741815.0,286047002.1,N
1635741815.9,286047002.1,N
1635741835.8,286047002.2,N
1635741855.6,286047002.8,N
1635741875.4,286047002.1,N
1635741895.3,286047001.5,N
1635741915.1,286046999.8,N
1635741935.9,286047000.7,N
1635741955.7,286047000.4,N
1635741975.5,286047001.1,N
1635741995.4,286047001.2,N
1635742015.2,286046998.2,N
1635742035.0,286046998.5,N
1635742036.0,286046998.5,N
1635742055.8,286046998.2,N
1635742075.6,286046998.4,N
1635742095.5,286047001.2,N
1635742115.3,286047000.8,N
1635742135.1,286047002.4,N
1635742155.9,286047000.1,N
1635742175.7,286046998.1,N
1635742195.6,286047000.7,N
1635742215.4,286047000.7,N
1635742235.2,286047000.0,N
1635742255.1,286046998.1,N
1635742256.0,286046998.1,N
1635742275.8,286047000.8,N
1635742295.6,286047000.0,N
1635742315.5,286047002.1,N
1635742335.3,286047000.4,N
1635742355.2,286046999.8,N
1635742375.9,286047002.7,N
1635742395.7,286047002.7,N
1635742415.6,286047000.0,N
1635742435.4,286047002.6,N
1635742455.2,286047002.5,N
1635742475.1,286047002.8,N
1635742476.0,286047002.8,N
1635742495.8,286047002.5,N
1635742515.7,286047000.0,N
1635742535.5,286046999.9,N
1635742555.3,286047002.3,N
1635742575.2,286047002.2,N
1635742595.0,286047004.4,N
1635742595.9,286047004.4,N
1635742615.8,286047002.2,N
1635742635.6,286047002.0,N
1635742655.4,286047001.9,N
1635742675.3,286047000.2,N
1635742695.1,286047002.7,N
1635742715.9,286047002.4,N
1635742735.7,286047002.5,N
1635742755.5,286047001.6,N
1635742775.4,286047001.9,N
1635742795.2,286047001.6,N
